• In Kazakhstan
  • List of Countries
  • For 7 days
  • Water Temperature
  • Satellite Maps
  • Weather Map
  • News
  • Weather Widgets
  • user-avatar
    Login

    Hourly Weather Wichita

    Today, 25 September, Monday

    Time Temperature Precipitation Wind Pressure Humidity
    00:00 +23°C° 0 mm 4 mps 724 mmHg 78%
    01:00 +23°C° 1 mm 4 mps 724 mmHg 80%
    02:00 +22°C° 1 mm 4 mps 724 mmHg 83%
    03:00 +22°C° 1 mm 3 mps 724 mmHg 86%
    04:00 +22°C° 0.1 mm 3 mps 724 mmHg 86%
    05:00 +22°C° 0.1 mm 3 mps 724 mmHg 86%
    06:00 +22°C° 0.1 mm 3 mps 724 mmHg 87%
    07:00 +23°C° 0.4 mm 4 mps 724 mmHg 82%
    08:00 +25°C° 0.4 mm 5 mps 725 mmHg 76%
    09:00 +26°C° 0.4 mm 6 mps 725 mmHg 71%
    10:00 +27°C° 1.9 mm 6 mps 725 mmHg 67%
    11:00 +28°C° 1.9 mm 6 mps 724 mmHg 62%
    12:00 +29°C° 1.9 mm 6 mps 724 mmHg 57%
    13:00 +29°C° 2.3 mm 5 mps 724 mmHg 58%
    14:00 +29°C° 2.3 mm 4 mps 724 mmHg 59%
    15:00 +29°C° 2.3 mm 3 mps 723 mmHg 60%
    16:00 +28°C° 1.3 mm 3 mps 723 mmHg 65%
    17:00 +26°C° 1.3 mm 2 mps 723 mmHg 71%
    18:00 +25°C° 1.3 mm 2 mps 723 mmHg 76%
    19:00 +25°C° 2.1 mm 2 mps 723 mmHg 80%
    20:00 +24°C° 2.1 mm 2 mps 723 mmHg 83%
    21:00 +23°C° 2.1 mm 2 mps 723 mmHg 87%
    22:00 +23°C° 2.1 mm 2 mps 724 mmHg 86%
    23:00 +23°C° 2.1 mm 2 mps 724 mmHg 86%

    Tomorrow, 26 September, Tuesday

    Time Temperature Precipitation Wind Pressure Humidity
    00:00 +23°C° 2.1 mm 2 mps 724 mmHg 86%
    01:00 +23°C° 2 mm 2 mps 724 mmHg 86%
    02:00 +23°C° 2 mm 2 mps 724 mmHg 87%
    03:00 +23°C° 2 mm 2 mps 724 mmHg 87%
    04:00 +21°C° 0.3 mm 2 mps 725 mmHg 87%
    05:00 +21°C° 0.3 mm 2 mps 725 mmHg 88%
    06:00 +21°C° 0.3 mm 2 mps 725 mmHg 89%
    07:00 +21°C° 0.1 mm 2 mps 725 mmHg 88%
    08:00 +21°C° 0.1 mm 3 mps 726 mmHg 87%
    09:00 +21°C° 0.1 mm 3 mps 727 mmHg 87%
    10:00 +21°C° 0.3 mm 4 mps 727 mmHg 85%
    11:00 +21°C° 0.3 mm 4 mps 727 mmHg 83%
    12:00 +22°C° 0.3 mm 4 mps 727 mmHg 81%
    13:00 +22°C° 0.3 mm 4 mps 727 mmHg 80%
    14:00 +22°C° 0.3 mm 4 mps 727 mmHg 80%
    15:00 +22°C° 0.3 mm 4 mps 727 mmHg 80%
    16:00 +21°C° 0.2 mm 4 mps 727 mmHg 82%
    17:00 +21°C° 0.2 mm 4 mps 727 mmHg 84%
    18:00 +20°C° 0.2 mm 4 mps 727 mmHg 86%
    19:00 +20°C° 0.2 mm 4 mps 727 mmHg 88%
    20:00 +20°C° 0.2 mm 4 mps 728 mmHg 89%
    21:00 +19°C° 0.2 mm 3 mps 728 mmHg 90%
    22:00 +19°C° 0.2 mm 3 mps 728 mmHg 91%
    23:00 +19°C° 0.2 mm 4 mps 728 mmHg 92%

    Day after tomorrow, 27 September, Wednesday

    Time Temperature Precipitation Wind Pressure Humidity
    00:00 +19°C° 0.2 mm 4 mps 728 mmHg 92%
    01:00 +19°C° 0.1 mm 4 mps 728 mmHg 92%
    02:00 +18°C° 0.1 mm 4 mps 728 mmHg 92%
    03:00 +18°C° 0.1 mm 4 mps 728 mmHg 92%
    04:00 +18°C° 0.1 mm 4 mps 729 mmHg 92%
    05:00 +18°C° 0.1 mm 4 mps 729 mmHg 92%
    06:00 +18°C° 0.1 mm 4 mps 729 mmHg 91%
    07:00 +17°C° 0.1 mm 5 mps 730 mmHg 90%
    08:00 +17°C° 0.1 mm 5 mps 730 mmHg 88%
    09:00 +19°C° 0.1 mm 5 mps 731 mmHg 86%
    10:00 +19°C° 0 mm 5 mps 731 mmHg 83%
    11:00 +20°C° 0 mm 5 mps 731 mmHg 80%
    12:00 +20°C° 0 mm 5 mps 731 mmHg 77%
    13:00 +20°C° 0 mm 5 mps 731 mmHg 76%
    14:00 +20°C° 0 mm 5 mps 731 mmHg 75%
    15:00 +21°C° 0 mm 5 mps 730 mmHg 73%
    16:00 +20°C° 0 mm 5 mps 730 mmHg 72%
    17:00 +20°C° 0 mm 4 mps 730 mmHg 71%
    18:00 +20°C° 0 mm 4 mps 730 mmHg 70%
    19:00 +19°C° 0 mm 4 mps 731 mmHg 68%
    20:00 +19°C° 0 mm 4 mps 731 mmHg 67%
    21:00 +18°C° 0 mm 3 mps 732 mmHg 65%
    22:00 +18°C° 0 mm 3 mps 732 mmHg 65%
    23:00 +17°C° 0 mm 4 mps 732 mmHg 64%

    28 September, Thursday

    Time Temperature Precipitation Wind Pressure Humidity
    00:00 +17°C° 0 mm 4 mps 732 mmHg 63%
    01:00 +17°C° 0 mm 4 mps 732 mmHg 64%
    02:00 +16°C° 0 mm 3 mps 732 mmHg 65%
    03:00 +16°C° 0 mm 3 mps 732 mmHg 66%
    04:00 +14°C° 0 mm 3 mps 732 mmHg 66%
    05:00 +14°C° 0 mm 3 mps 732 mmHg 67%
    06:00 +13°C° 0 mm 3 mps 732 mmHg 68%
    07:00 +16°C° 0 mm 3 mps 732 mmHg 63%
    08:00 +17°C° 0 mm 4 mps 733 mmHg 58%
    09:00 +19°C° 0 mm 4 mps 733 mmHg 53%
    10:00 +20°C° 0 mm 4 mps 733 mmHg 47%
    11:00 +22°C° 0 mm 4 mps 733 mmHg 41%
    12:00 +25°C° 0 mm 4 mps 733 mmHg 34%
    13:00 +26°C° 0 mm 4 mps 732 mmHg 34%
    14:00 +26°C° 0 mm 4 mps 732 mmHg 33%
    15:00 +27°C° 0 mm 4 mps 731 mmHg 32%
    16:00 +25°C° 0 mm 4 mps 731 mmHg 37%
    17:00 +24°C° 0 mm 3 mps 731 mmHg 43%
    18:00 +21°C° 0 mm 3 mps 731 mmHg 48%
    19:00 +20°C° 0 mm 3 mps 731 mmHg 51%
    20:00 +19°C° 0 mm 3 mps 732 mmHg 54%
    21:00 +18°C° 0 mm 3 mps 732 mmHg 57%
    22:00 +18°C° 0 mm 2 mps 732 mmHg 59%
    23:00 +17°C° 0 mm 2 mps 732 mmHg 61%

    29 September, Friday

    Time Temperature Precipitation Wind Pressure Humidity
    00:00 +18°C° 0 mm 1 mps 732 mmHg 63%
    01:00 +18°C° 0 mm 1 mps 732 mmHg 64%
    02:00 +18°C° 0 mm 1 mps 732 mmHg 65%
    03:00 +16°C° 0 mm 1 mps 732 mmHg 65%
    04:00 +16°C° 0 mm 1 mps 732 mmHg 66%
    05:00 +16°C° 0 mm 1 mps 732 mmHg 67%
    06:00 +16°C° 0 mm 2 mps 732 mmHg 67%
    07:00 +17°C° 0 mm 2 mps 732 mmHg 63%
    08:00 +19°C° 0 mm 2 mps 733 mmHg 59%
    09:00 +20°C° 0 mm 2 mps 733 mmHg 54%
    10:00 +23°C° 0 mm 2 mps 733 mmHg 50%
    11:00 +24°C° 0 mm 2 mps 733 mmHg 45%
    12:00 +25°C° 0 mm 2 mps 733 mmHg 41%
    13:00 +26°C° 0 mm 2 mps 732 mmHg 39%
    14:00 +27°C° 0 mm 2 mps 732 mmHg 37%
    15:00 +27°C° 0 mm 3 mps 731 mmHg 35%
    16:00 +26°C° 0 mm 2 mps 731 mmHg 39%
    17:00 +25°C° 0 mm 2 mps 731 mmHg 43%
    18:00 +24°C° 0 mm 2 mps 731 mmHg 48%
    19:00 +23°C° 0 mm 2 mps 731 mmHg 50%
    20:00 +21°C° 0 mm 3 mps 731 mmHg 53%
    21:00 +20°C° 0 mm 3 mps 731 mmHg 55%
    22:00 +19°C° 0 mm 3 mps 731 mmHg 57%
    23:00 +19°C° 0 mm 3 mps 731 mmHg 60%

    30 September, Saturday

    Time Temperature Precipitation Wind Pressure Humidity
    00:00 +18°C° 0 mm 3 mps 731 mmHg 62%
    01:00 +18°C° 0 mm 3 mps 731 mmHg 63%
    02:00 +17°C° 0 mm 3 mps 731 mmHg 64%
    03:00 +17°C° 0 mm 3 mps 731 mmHg 65%
    04:00 +17°C° 0 mm 3 mps 731 mmHg 66%
    05:00 +16°C° 0 mm 3 mps 731 mmHg 67%
    06:00 +16°C° 0 mm 3 mps 731 mmHg 68%
    07:00 +17°C° 0 mm 3 mps 731 mmHg 64%
    08:00 +18°C° 0 mm 3 mps 731 mmHg 61%
    09:00 +19°C° 0 mm 4 mps 731 mmHg 58%
    10:00 +21°C° 0 mm 4 mps 731 mmHg 53%
    11:00 +23°C° 0 mm 4 mps 731 mmHg 47%
    12:00 +26°C° 0 mm 4 mps 731 mmHg 42%
    13:00 +27°C° 0 mm 5 mps 730 mmHg 42%
    14:00 +27°C° 0 mm 5 mps 729 mmHg 41%
    15:00 +27°C° 0 mm 5 mps 729 mmHg 41%
    16:00 +26°C° 0.2 mm 4 mps 728 mmHg 48%
    17:00 +24°C° 0.2 mm 3 mps 728 mmHg 56%
    18:00 +22°C° 0.2 mm 3 mps 728 mmHg 63%
    19:00 +21°C° 0.1 mm 3 mps 728 mmHg 65%
    20:00 +20°C° 0.1 mm 3 mps 728 mmHg 67%
    21:00 +20°C° 0.1 mm 3 mps 728 mmHg 69%
    22:00 +19°C° 0.1 mm 3 mps 727 mmHg 69%
    23:00 +19°C° 0.1 mm 4 mps 727 mmHg 70%
    Show more